This is the latest recevied weather packets stored in our database for station/object DO1SC. If no packets are shown the sender has not sent any weather packets the latest 1 day(s).
| Time | Temp. | Humidity | Pressure | Rain* | Wind** | Luminosity | Snow |
|---|---|---|---|---|---|---|---|
| 1777974333 | 16.11° C | 73% | 1010.1 hPa | - | 1.34 m/s, 310° | 671 W/m² | - |
| 1777973725 | 16.11° C | 74% | 1010.2 hPa | - | 2.68 m/s, 300° | 656 W/m² | - |
| 1777973116 | 16.11° C | 74% | 1010.2 hPa | - | 2.24 m/s, 300° | 609 W/m² | - |
| 1777972528 | 15.56° C | 77% | 1010.4 hPa | - | 1.79 m/s, 308° | 650 W/m² | - |
| 1777971920 | 15.56° C | 78% | 1010.4 hPa | - | 2.24 m/s, 300° | 666 W/m² | - |
| 1777971332 | 16.11° C | 76% | 1010.6 hPa | - | 1.79 m/s, 292° | 499 W/m² | - |
| 1777970723 | 15.56° C | 77% | 1010.6 hPa | - | 0.45 m/s, 306° | 362 W/m² | - |
| 1777970135 | 15° C | 78% | 1010.6 hPa | - | 0.45 m/s, 289° | 356 W/m² | - |
| 1777969527 | 14.44° C | 81% | 1010.7 hPa | - | 0.45 m/s, 309° | 461 W/m² | - |
| 1777968918 | 14.44° C | 81% | 1010.8 hPa | - | 1.34 m/s, 312° | 268 W/m² | - |
| 1777968333 | 13.89° C | 82% | 1010.8 hPa | - | 0.45 m/s, 310° | 305 W/m² | - |
| 1777967724 | 13.89° C | 83% | 1010.7 hPa | - | 0.89 m/s, 101° | 212 W/m² | - |
| 1777967132 | 14.44° C | 82% | 1010.8 hPa | - | 0.89 m/s, 150° | 158 W/m² | - |
| 1777966523 | 13.89° C | 85% | 1010.8 hPa | - | 0.89 m/s, 56° | 246 W/m² | - |
| 1777965938 | 13.33° C | 86% | 1010.8 hPa | - | 0.45 m/s, 154° | 252 W/m² | - |
| 1777965327 | 13.33° C | 86% | 1010.8 hPa | - | 0.89 m/s, 136° | 191 W/m² | - |
| 1777964719 | 13.33° C | 87% | 1010.9 hPa | - | 0.45 m/s, 174° | 189 W/m² | - |
| 1777964131 | 12.78° C | 88% | 1010.8 hPa | - | 0.89 m/s, 158° | 213 W/m² | - |
| 1777963522 | 12.22° C | 92% | 1010.6 hPa | - | 0.89 m/s, 127° | 205 W/m² | - |
| 1777962937 | 11.67° C | 96% | 1010.8 hPa | - | 0.45 m/s, 300° | 161 W/m² | - |
| 1777962325 | 11.11° C | 96% | 1010.8 hPa | - | 0.45 m/s, 288° | 115 W/m² | - |
| 1777961717 | 11.11° C | 96% | 1010.9 hPa | - | 0.45 m/s, 292° | 75 W/m² | - |
| 1777961131 | 11.11° C | 96% | 1011 hPa | - | 0.45 m/s, 308° | 33 W/m² | - |
| 1777960518 | 11.11° C | 96% | 1011.1 hPa | - | 0.89 m/s, 301° | 19 W/m² | - |
| 1777959930 | 11.11° C | 96% | 1010.9 hPa | - | 0.89 m/s, 299° | 17 W/m² | - |
* Rain since midnight (hover to see other rain measurements)
** Current wind speed in m/s (hover to see current wind gust speed)